Location: Phoenix
(33.4480°N, 112.0730°W)
Time: 07:28:38
(UTC-07:00)

Cosmos 1470 Rocket - Visible Passes

Search period start: 02 October 2014 00:00
Search period end: 12 October 2014 00:00
Orbit: 606 x 635 km, 82.5° (Epoch: 01 October)

Date Brightness Start Highest point End Pass type
(mag) Time Alt. Az. Time Alt. Az. Time Alt. Az.
02 Oct 3.9 18:32:14 10° N 18:36:32 45° E 18:40:48 10° SSE visible
02 Oct 6.9 20:12:17 10° WNW 20:13:56 12° W 20:15:35 10° WSW visible
03 Oct 3.6 18:49:54 10° N 18:54:23 88° W 18:58:52 10° S visible
04 Oct 5.0 19:07:56 10° NNW 19:12:09 42° W 19:16:22 10° SSW visible
05 Oct 6.3 19:26:27 10° NW 19:29:50 21° W 19:33:12 10° SW visible
06 Oct 7.2 19:46:32 10° WNW 19:47:25 11° W 19:48:18 10° W visible
07 Oct 3.8 18:23:26 10° N 18:27:55 78° W 18:32:23 10° S visible
08 Oct 5.4 18:41:32 10° NNW 18:45:40 37° W 18:49:47 10° SSW visible
09 Oct 7.5 05:34:30 10° E 05:35:21 11° E 05:36:12 10° ENE visible
09 Oct 6.7 19:00:09 10° NW 19:03:19 19° W 19:06:28 10° SW visible
10 Oct 6.6 05:49:37 10° SE 05:52:55 21° E 05:56:15 10° NE visible
11 Oct 5.1 06:06:29 10° SSE 06:10:35 43° E 06:14:45 10° NNE visible
